Zurück zum Katalog

ECHO 1 DEB

METAL OBJ

AktivLEO
NORAD 53·DEBRIS·🇺🇸 United States

Gestartet Aug 12, 1960 von Cape Canaveral Space Force Station

Loading…

Nächste Überflüge (nächste 24 Stunden)

TLE

AktuellSource: Space-Track

Epoche: Sep 14, 2026, 05:10 UTC

1 00053U 60009E   26257.21566642 -.00000088  00000-0 -29809-4 0  9997
2 00053  47.2770  67.6989 0098023 339.5538  20.1341 12.17412847946276

Verfolge ECHO 1 DEB in Echtzeit mit AllMySat

Download on the App Store